TimeMST,TemperatureF,Dew PointF,Humidity,Sea Level PressureIn,VisibilityMPH,Wind Direction,Wind SpeedMPH,Gust SpeedMPH,PrecipitationIn,Events,Conditions,WindDirDegrees,DateUTC
12:56 AM,16.0,12.9,88,29.93,-9999.0,Calm,Calm,-,N/A,,Unknown,0,2013-03-09 07:56:00
1:56 AM,16.0,12.9,88,29.94,-9999.0,Calm,Calm,-,N/A,,Unknown,0,2013-03-09 08:56:00
2:56 AM,19.9,15.1,81,29.91,-9999.0,Calm,Calm,-,N/A,,Unknown,0,2013-03-09 09:56:00
3:56 AM,15.1,10.0,80,29.96,-9999.0,Calm,Calm,-,N/A,,Unknown,0,2013-03-09 10:56:00
4:56 AM,12.9,9.0,84,29.99,-9999.0,WSW,3.5,-,N/A,,Unknown,250,2013-03-09 11:56:00
5:56 AM,7.0,3.9,87,30.06,-9999.0,NW,4.6,-,N/A,,Unknown,320,2013-03-09 12:56:00
6:56 AM,3.9,-0.0,84,30.11,-9999.0,Calm,Calm,-,N/A,,Unknown,0,2013-03-09 13:56:00
7:56 AM,8.1,6.1,92,30.12,-9999.0,Calm,Calm,-,N/A,,Unknown,0,2013-03-09 14:56:00
8:56 AM,18.0,12.9,81,30.09,-9999.0,Variable,3.5,-,N/A,,Unknown,0,2013-03-09 15:56:00
9:56 AM,26.1,9.0,49,30.06,-9999.0,NNE,4.6,-,N/A,,Unknown,30,2013-03-09 16:56:00
10:56 AM,27.0,9.0,47,30.07,-9999.0,WNW,11.5,18.4,N/A,,Unknown,300,2013-03-09 17:56:00
11:56 AM,28.0,9.0,45,30.12,-9999.0,North,9.2,17.3,N/A,,Unknown,10,2013-03-09 18:56:00
12:56 PM,30.0,9.0,41,30.11,-9999.0,NW,8.1,-,N/A,,Unknown,320,2013-03-09 19:56:00
1:56 PM,30.9,9.0,40,30.11,-9999.0,North,8.1,-,N/A,,Unknown,10,2013-03-09 20:56:00
2:56 PM,30.9,10.0,42,30.11,-9999.0,Variable,5.8,17.3,N/A,,Unknown,0,2013-03-09 21:56:00
3:56 PM,28.9,9.0,43,30.17,-9999.0,WNW,9.2,19.6,N/A,,Unknown,290,2013-03-09 22:56:00
4:56 PM,28.9,8.1,41,30.21,-9999.0,Variable,4.6,-,N/A,,Unknown,0,2013-03-09 23:56:00
5:56 PM,25.0,8.1,49,30.29,-9999.0,NNW,8.1,-,N/A,,Unknown,330,2013-03-10 00:56:00
6:56 PM,21.9,8.1,55,30.37,-9999.0,NW,5.8,-,N/A,,Unknown,310,2013-03-10 01:56:00
7:56 PM,21.0,7.0,55,30.37,-9999.0,NW,4.6,-,N/A,,Unknown,320,2013-03-10 02:56:00
8:56 PM,19.0,7.0,59,30.34,-9999.0,Variable,4.6,-,N/A,,Unknown,0,2013-03-10 03:56:00
9:56 PM,12.0,5.0,73,30.35,-9999.0,Calm,Calm,-,N/A,,Unknown,0,2013-03-10 04:56:00
10:56 PM,8.1,3.0,80,30.38,-9999.0,Calm,Calm,-,N/A,,Unknown,0,2013-03-10 05:56:00
11:56 PM,5.0,-0.0,80,30.41,-9999.0,Calm,Calm,-,N/A,,Unknown,0,2013-03-10 06:56:00